Overview Statistics Trail Chart Weather Telemetry Raw packets
 

This is the latest recevied weather packets stored in our database for station/object N5ATR. If no packets are shown the sender has not sent any weather packets the latest 10 day(s).

<< 63 64 65 66 67 68 69 >>
Time Temp. Humidity Pressure Rain* Wind** Luminosity Snow
1788245166 15° C 94% 1024.1 hPa 0 mm - 0 W/m² -
1788244862 15° C 94% 1024 hPa 0 mm - 0 W/m² -
1788244559 15° C 94% 1023.8 hPa 0 mm - 0 W/m² -
1788244255 15° C 94% 1023.8 hPa 0 mm - 0 W/m² -
1788243950 15° C 94% 1023.8 hPa 0 mm - 0 W/m² -
1788243646 15° C 93% 1023.8 hPa 0 mm - 0 W/m² -
1788243343 15° C 92% 1024 hPa 0 mm - 0 W/m² -
1788243043 15° C 92% 1024.1 hPa 0 mm - 0 W/m² -
1788242737 15° C 92% 1024.1 hPa 0 mm - 0 W/m² -
1788242432 15.56° C 91% 1024.4 hPa 0 mm - 0 W/m² -
1788242127 15.56° C 91% 1024 hPa 0 mm - 0 W/m² -
1788241824 15.56° C 90% 1024 hPa 0 mm - 0 W/m² -
1788241521 15.56° C 89% 1024 hPa 0 mm - 0 W/m² -
1788241217 15.56° C 87% 1024 hPa 0 mm - 0 W/m² -
1788240912 15.56° C 85% 1023.9 hPa 0 mm - 0 W/m² -
1788240609 15.56° C 82% 1024.1 hPa 0 mm - 0 W/m² -
1788240304 16.11° C 82% 1024 hPa 0 mm - 0 W/m² -
1788240003 16.11° C 80% 1023.9 hPa 0 mm - 0 W/m² -
1788239698 15.56° C 79% 1023.6 hPa 0 mm - 0 W/m² -
1788239397 15.56° C 81% 1023.5 hPa 0 mm - 0 W/m² -
1788239093 16.11° C 78% 1023.4 hPa 0 mm - 0 W/m² -
1788238792 16.11° C 77% 1023.3 hPa 0 mm - 0 W/m² -
1788238487 16.11° C 76% 1023.3 hPa 0 mm - 0 W/m² -
1788238183 15.56° C 79% 1023.1 hPa 0 mm - 0 W/m² -
1788237878 15.56° C 80% 1023.1 hPa 0 mm - 0 W/m² -

* Rain latest hour (hover to see other rain measurements)
** Current wind speed in m/s (hover to see current wind gust speed)